Location: Unspecified
(0.0000°N, 0.0000°E)
Time: 23:16:01
(UTC+00:00)

USA 161 - Visible Passes

Search period start: 20 March 2019 00:00
Search period end: 30 March 2019 00:00
Orbit: 386 x 391 km, 97.0° (Epoch: 27 September)

Date Brightness Start Highest point End Pass type
(mag) Time Alt. Az. Time Alt. Az. Time Alt. Az.
20 Mar 1.9 18:30:30 10° N 18:33:17 60° W 18:35:50 10° SSW visible
26 Mar 4.9 19:03:13 10° NW 19:04:04 11° WNW 19:04:55 10° W visible
27 Mar 4.3 18:52:43 10° NNW 18:54:26 17° WNW 18:56:02 10° WSW visible
28 Mar 3.1 18:42:41 10° NNW 18:44:46 29° WNW 18:46:39 10° SW visible
29 Mar 1.4 18:32:48 10° N 18:35:03 57° W 18:37:01 10° SSW visible
